Location: Wapato
(46.4478°N, 120.4212°W)
Time: 17:49:56
(UTC+00:00)

Explorer 7 - Pass Details

Date: 19 May 2026
Orbit: 426 x 534 km, 50.2° (Epoch: 9 June)

Event Time Altitude Azimuth Distance (km) Brightness Sun altitude
Rises 12:24:35 0° 249° (WSW) 2,416 - -0.7°
Exits shadow 12:24:45 - 249° (WSW) 2,342 9.4 -0.6°
Reaches altitude 10° 12:26:40 10° 250° (WSW) 1,563 8.5 -0.3°
Maximum altitude 12:30:11 83° 336° (NNW) 464 6.5 0.2°
Drops below altitude 10° 12:33:51 10° 67° (ENE) 1,628 11.6 0.7°
Sets 12:36:04 0° 68° (ENE) 2,528 13.1 1.1°
